Texarkana, AR

9:25 AM CST on January 24, 2017 (GMT -0600)
Texarkana Regional-Webb

Weather History for KTXK - November, 2011

Change the Weather History Date:

Monday, November 28, 2011

  Actual Average Record
Temperature  
Mean Temperature 39 °F 50 °F  
Max Temperature 48 °F 60 °F 83 °F (1949)
Min Temperature 30 °F 40 °F 18 °F (1912)
Degree Days  
Heating Degree Days 26 15  
Month to date heating degree days 240 306  
Since 1 July heating degree days 326 424  
Cooling Degree Days 0 0  
Month to date cooling degree days 47 14  
Year to date cooling degree days 2969 2202  
Moisture  
Dew Point 28 °F    
Average Humidity 66    
Maximum Humidity 85    
Minimum Humidity 46    
Precipitation  
Precipitation 0.00 in 0.18 in 2.43 in (2001)
Month to date precipitation 2.89 4.44  
Year to date precipitation 25.01 44.22  
Snow  
Snow 0.00 in - - ()
Month to date snowfall 0.0  
Since 1 July snowfall 0.0  
Since 1 September snowfall 0.0  
Snow Depth 0.00 in    
Sea Level Pressure  
Sea Level Pressure 30.06 in    
Wind  
Wind Speed 7 mph (NW)    
Max Wind Speed 15 mph    
Max Gust Speed 20 mph    
Visibility 10 miles    
Events      
T = Trace of Precipitation, MM = Missing Value Source: NWS Daily Summary

Daily Weather History Graph

Daily Weather History Graph

Search for Another Location

Airport or City:

Trip Planner

Search our weather history database for the weather conditions in past years. The results will help you decide how hot, cold, wet, or windy it might be!

Date:

Astronomy

Nov. 28, 2011 Rise Set
Actual Time 6:59 AM CST 5:08 PM CST
Civil Twilight 6:32 AM CST 5:35 PM CST
Nautical Twilight 6:01 AM CST 6:06 PM CST
Astronomical Twilight 5:31 AM CST 6:35 PM CST
Moon 10:10 AM CST (11/28) 8:53 PM CST (11/28)
Length of Visible Light 11h 03m
Length of Day
10h 09m
Waxing Crescent, 16% of the Moon is Illuminated
Nov 28
Waxing Crescent
Dec 2
First Quarter
Dec 10
Full
Dec 17
Last Quarter
Dec 24
New

Hourly Weather History & Observations

Time (CST) Temp. Windchill Dew Point Humidity Pressure Visibility Wind Dir Wind Speed Gust Speed Precip Events Conditions
12:53 AM 34.0 °F 31.0 °F 28.0 °F 79% 30.14 in 10.0 mi NW 3.5 mph - N/A   Clear
1:53 AM 33.1 °F 30.0 °F 27.0 °F 78% 30.13 in 10.0 mi WNW 3.5 mph - N/A   Clear
2:53 AM 32.0 °F - 27.0 °F 82% 30.12 in 10.0 mi Calm Calm - N/A   Mostly Cloudy
3:53 AM 33.1 °F 30.0 °F 28.0 °F 82% 30.12 in 10.0 mi NNW 3.5 mph - N/A   Overcast
4:53 AM 32.0 °F 26.4 °F 27.0 °F 82% 30.11 in 10.0 mi NW 5.8 mph - N/A   Mostly Cloudy
5:53 AM 30.9 °F 26.2 °F 26.1 °F 82% 30.11 in 10.0 mi NW 4.6 mph - N/A   Partly Cloudy
6:53 AM 33.1 °F 27.7 °F 27.0 °F 78% 30.11 in 10.0 mi NNW 5.8 mph - N/A   Overcast
7:53 AM 33.1 °F 30.0 °F 27.0 °F 78% 30.12 in 10.0 mi NNW 3.5 mph - N/A   Overcast
8:53 AM 37.0 °F 31.0 °F 27.0 °F 67% 30.12 in 10.0 mi NNW 8.1 mph - N/A   Partly Cloudy
9:53 AM 41.0 °F 35.2 °F 28.9 °F 62% 30.12 in 10.0 mi NW 9.2 mph - N/A   Clear
10:53 AM 42.1 °F - 26.1 °F 53% 30.11 in 10.0 mi Calm Calm - N/A   Overcast
11:53 AM 44.1 °F 39.5 °F 27.0 °F 51% 30.08 in 10.0 mi NNW 8.1 mph - N/A   Scattered Clouds
12:53 PM 46.0 °F 41.4 °F 28.0 °F 50% 30.05 in 10.0 mi NNW 9.2 mph - N/A   Partly Cloudy
1:53 PM 46.9 °F - 28.0 °F 48% 30.02 in 10.0 mi WNW 11.5 mph - N/A   Clear
2:53 PM 48.0 °F - 28.9 °F 48% 30.01 in 10.0 mi NW 12.7 mph - N/A   Clear
3:53 PM 46.9 °F - 28.9 °F 50% 30.00 in 10.0 mi WNW 9.2 mph - N/A   Clear
4:53 PM 46.0 °F 43.1 °F 30.0 °F 54% 29.99 in 10.0 mi West 5.8 mph - N/A   Clear
5:53 PM 39.9 °F 36.7 °F 30.9 °F 70% 29.99 in 10.0 mi SW 4.6 mph - N/A   Clear
6:53 PM 39.0 °F 34.8 °F 30.9 °F 73% 29.99 in 10.0 mi WSW 5.8 mph - N/A   Clear
7:53 PM 41.0 °F 39.0 °F 30.0 °F 65% 30.01 in 10.0 mi West 3.5 mph - N/A   Clear
8:53 PM 42.1 °F 36.1 °F 28.0 °F 58% 30.01 in 10.0 mi WNW 10.4 mph - N/A   Clear
9:53 PM 42.1 °F 36.1 °F 27.0 °F 55% 30.02 in 10.0 mi WNW 10.4 mph - N/A   Clear
10:53 PM 41.0 °F 35.2 °F 26.6 °F 57% 30.02 in 10.0 mi WNW 9.2 mph - N/A   Clear
11:53 PM 41.0 °F 34.3 °F 27.0 °F 57% 30.02 in 10.0 mi NW 11.5 mph - N/A   Clear